Location: Ariel
(45.9570°N, 122.5700°W)
Time: 21:33:08
(UTC-07:00)

Altair - Pass Details

Date: 28 July 2019
Orbit: 1501 x 1683 km, 47.2° (Epoch: 19 August)

Event Time Altitude Azimuth Distance (km) Brightness Sun altitude
Rises 14:32:47 0° 278° (W) 4,643 10.2 58.7°
Reaches altitude 10° 14:35:48 10° 279° (W) 3,656 9.8 58.4°
Maximum altitude 14:45:01 86° 9° (N) 1,514 8.6 57.4°
Drops below altitude 10° 14:54:21 10° 99° (E) 3,699 9.4 56.3°
Sets 14:57:25 0° 100° (E) 4,701 9.9 55.9°
